sat.trackr.live / text

‹ back to catalog

STARLINK-3550

NORAD 52373 · 2022-045AU

PAYLOAD ACTIVE UNKNOWN

§ Identity

Operator
Country
US
Launch date
2022-04-29
Launch site
AFETR
Launch vehicle
Mass (kg)
RCS (m²)

Purposes: comms

External: N2YO · Heavens-Above · Gunter

§ Orbital elements

Epoch: 2026-05-25T04:33:15.937920Z

Period
95.44 min
Inclination
53.2137°
Eccentricity
0.0001177
Mean motion
15.08836716 rev/d
Perigee alt
538.9 km
Apogee alt
540.6 km
Semi-major
6,917.9 km
B*
6.3911e-6
RAAN
205.6992°
Arg perigee
76.0260°
Mean anomaly
284.0863°
Rev number
22,747

§ Raw data

STARLINK-35501 52373U 22045AU  26145.18976780 -.00000186  00000+0  63911-5 0  99972 52373  53.2137 205.6992 0001177  76.0260 284.0863 15.08836716227471

JSON: /api/v1/satellites/52373 · /tle

For live sub-satellite position, see the globe view (requires WebGL).

§ Visibility from observer

Set your observer location to see the next 7 days of passes ≥ 10°. The values pass through the URL so the page stays shareable.

No JS? Fill the form by hand. The geolocation button needs JavaScript.